Regional Weather Roundup
Issued by NWS State College, PA

Home | Current Version | Previous Version | Text Only | Print | Product List | Glossary Off
Versions: 1 2 3 4 5 6 7 8 9 10 11 12 13 14 15 16 17 18 19 20 21 22 23 24 25 26 27 28 29 30 31 32 33 34 35 36 37 38 39 40 41 42 43 44 45 46 47 48 49 50

000
ASUS41 KCTP 250710
RWRCTP

REGIONAL WEATHER ROUNDUP
NATIONAL WEATHER SERVICE STATE COLLEGE PA
200 AM EST SUN JAN 25 2015

Note: "fair" indicates few or no clouds below 12,000 feet with no
significant weather and/or obstructions to visibility.

* = STATION THAT DOES NOT REPORT PRECIPITATION /E.G. RAIN...SNOW...ETC/
    THUNDER OR FOG.

PAZ002>004-007>009-013>016-020>023-029>032-250800-
WESTERN PENNSYLVANIA

CITY           SKY/WX    TMP DP  RH WIND       PRES   REMARKS
ERIE           CLOUDY    33  30  88 W13G20    29.66R FOG
MEADVILLE      CLOUDY    31  29  92 W13       29.63R FOG
FRANKLIN*      CLOUDY    30  27  86 W10G16    29.65R
NEW CASTLE     PTSUNNY   32  30  92 SW7       29.70R
BEAVER COUNTY  NOT AVBL
BUTLER*        CLOUDY    32  28  86 SW12      29.70R
PITTSBURGH INT CLOUDY    33  30  88 W9        29.70R FOG
PITTSBURGH     CLOUDY    32  27  81 SW12      29.70R FOG
INDIANA*       CLOUDY    32  30  93 W13       29.70R FOG
LATROBE        LGT RAIN  32  32 100 SW13      29.73R
WASHINGTON CO* CLOUDY    34  28  80 SW9G16    29.75R
$$

PAZ004>006-010>012-017>019-024>028-033>037-041-042-045-046-049>053-250800-
CENTRAL PENNSYLVANIA

CITY           SKY/WX    TMP DP  RH WIND       PRES   REMARKS
BRADFORD       LGT SNOW  28  25  88 W9        29.54R FOG
DUBOIS         LGT SNOW  30  29  96 W16       29.59R VSB 1
CLEARFIELD     CLOUDY    30  28  92 SW10      29.60S
JOHNSTOWN      FRZ RAIN  28  26  92 W15G24    29.61R FOG
ALTOONA        CLOUDY    32  28  85 W15G23    29.64R
STATE COLLEGE  CLOUDY    32  28  86 W13G21    29.61R
WILLIAMSPORT   CLOUDY    33  25  72 W9        29.59R
SELINSGROVE    PTCLDY    36  26  67 W8        29.63R
FT INDIANTOWN  CLOUDY    35  26  69 SW13      29.62R
CAPITAL CITY   CLOUDY    37  26  64 W7        29.64R
HARRISBURG     MOCLDY    35  26  69 W13       29.64R
YORK           MOCLDY    35  26  69 W6        29.65R
$$

PAZ038>040-043-044-047-048-054-055-060>062-067>071-250800-
EASTERN PENNSYLVANIA

CITY           SKY/WX    TMP DP  RH WIND       PRES   REMARKS
SCRANTON       CLOUDY    32  23  69 SW10      29.53R
MOUNT POCONO   CLOUDY    28  22  78 W18G26    29.47R
ALLENTOWN      CLOUDY    34  24  67 W8        29.59R
QUAKERTOWN*    NOT AVBL
READING        CLOUDY    35  26  69 W9        29.61R
LANCASTER      CLOUDY    35  26  69 W16       29.63R
COATESVILLE    CLOUDY    36  30  80 W6        29.63R
POTTSTOWN      CLOUDY    34  25  69 W7        29.63R
BLUE BELL      MOCLDY    36  28  75 CALM      29.62R
DOYLESTOWN     MOCLDY    32  25  75 W5        29.59R
WILLOW GROVE   NOT AVBL
NORTH PHILA    PTCLDY    37  24  59 W10G20    29.64R
PHILADELPHIA   MOCLDY    36  26  67 W12       29.65R
$$



USA.gov is the U.S. government's official web portal to all federal, state and local government web resources and services.